Regional Weather Roundup
Issued by NWS

Home | Current Version | Previous Version | Graphics & Text | Print | Product List | Glossary On
Versions: 1 2 3 4 5 6 7 8 9 10 11 12 13 14 15 16 17 18 19 20 21 22 23 24 25 26 27 28 29 30 31 32 33 34 35 36 37 38 39 40 41 42 43 44 45 46 47 48 49 50
000
ASUS45 KABQ 232001
RWRNM
NEW MEXICO REGIONAL WEATHER ROUNDUP
NATIONAL WEATHER SERVICE ALBUQUERQUE NM
200 PM MDT FRI JUN 23 2017

NOTE: "FAIR" MEANS FEW OR NO CLOUDS BELOW 12,000 FEET AGL WITH NO
       SIGNIFICANT WEATHER OR OBSTRUCTIONS TO VISION.

      THIS PRODUCT IS RELEASED AS TWO VERSIONS.  ONE VERSION NEAR
      THE TOP OF THE HOUR CONTAINING PRELIMINARY DATA FROM ALBUQUERQUE
      AND OTHER STATIONS.  A FINAL VERSION WITH ADDITIONAL DATA IS
      ISSUED ABOUT 10 MINUTES AFTER THE HOUR.

NMZ501-503-504-510>518-232100-
NORTHWEST PLATEAU/NORTHCENTRAL MOUNTAINS

CITY           SKY/WX    TMP DP  RH WIND       PRES   REMARKS
FARMINGTON     FAIR      93  21   7 W17G26    30.06F
LOS ALAMOS     FAIR      87  28  12 S17       30.20F
SANTA FE       FAIR      90  44  20 SE20G39   30.13F
TAOS           FAIR      88  27  11 SW13G24   30.17F
ANGEL FIRE     FAIR      72  50  45 SE8G26    30.33S

$$
NMZ402-403-502-505>509-232100-
WESTCENTRAL MOUNTAINS/SOUTHWEST MOUNTAINS

CITY           SKY/WX    TMP DP  RH WIND       PRES   REMARKS
GALLUP         FAIR      91  26   9 N16       30.17F
GRANTS         FAIR      92  24   8 N8G17     30.18F
SILVER CITY    FAIR      97  24   7 NE6       30.06F

$$
NMZ407-409-411-412-232100-
SOUTHERN DESERTS

CITY           SKY/WX    TMP DP  RH WIND       PRES   REMARKS
DEMING         FAIR     103  20   5 SE9       29.94F HX  95
LAS CRUCES     FAIR     108  26   6 N16G32    29.95F HX  99
HOLLOMAN AFB   FAIR     107  23   5 NW10G22   29.91F HX  98
ALAMOGORDO     FAIR     108  27   6 N15G26    29.91F HX 100
T OR C         FAIR     103  24   6 E12G28    29.99F HX  95

$$
NMZ519>523-232100-
CENTRAL VALLEYS/CENTRAL HIGHLANDS

CITY           SKY/WX    TMP DP  RH WIND       PRES   REMARKS
ALBUQUERQUE    PTSUNNY   96  20   6 VRB3G17   30.06F
DOUBLE EAGLE   PTSUNNY   97  27   8 NW17      30.11F
MORIARTY ARPT  FAIR      91  47  22 SE13G32   30.17F
CLINES CORNERS FAIR      81  48  31 E15G24    30.25F
BELEN          FAIR      96  26   8 CALM      30.05F
SOCORRO        FAIR     101  28   7 N15G21    30.02F

$$
NMZ524>526-539-540-232100-
SOUTHCENTRAL MOUNTAINS

CITY           SKY/WX    TMP DP  RH WIND       PRES   REMARKS
RUIDOSO        FAIR      88  36  15 N6        30.22S

$$
NMZ527>531-232100-
NORTHEAST HIGHLANDS/NORTHEAST PLAINS

CITY           SKY/WX    TMP DP  RH WIND       PRES   REMARKS
LAS VEGAS      FAIR      78  54  43 E21G26    30.26S
RATON          FAIR      70  50  49 E17G23    30.25F
CLAYTON        FAIR      72  47  40 N21G26    30.22S

$$
NMZ532>537-232100-
EASTCENTRAL PLAINS

CITY           SKY/WX    TMP DP  RH WIND       PRES   REMARKS
SANTA ROSA     FAIR      81  55  39 NE21G33   30.13
TUCUMCARI      PTSUNNY   80  58  46 E22       30.11F
CANNON AFB     FAIR      78  60  53 NE24G35   30.12R
CLOVIS AIRPORT FAIR      79  60  52 NE25G32   30.12R

$$
NMZ028-029-538-232100-
SOUTHEAST PLAINS

CITY           SKY/WX    TMP DP  RH WIND       PRES   REMARKS
ROSWELL        FAIR     102  52  18 E12       29.92F HX  99
ARTESIA        FAIR      99  55  23 CALM      29.90F HX  97
CARLSBAD       FAIR     101  56  22 VRB3      29.86F HX 100
HOBBS          SUNNY    102  45  14 E7        29.90F HX  98


$$




USA.gov is the U.S. government's official web portal to all federal, state and local government web resources and services.